カタログに戻る

CZ-6A DEB

運用中SSO
NORAD 54401·DEBRIS·🇨🇳 China

打ち上げ Nov 11, 2022 から Taiyuan Satellite Launch Center

Loading…

次のパス (今後24時間)

TLE

最新Source: Space-Track

元期: Sep 14, 2026, 11:09 UTC

1 54401U 22151DZ  26257.46488309  .00001375  00000-0  49649-3 0  9990
2 54401  98.6612 256.3536 0111702 236.7578 122.2861 14.31794776199244

AllMySatでCZ-6A DEBをリアルタイム追跡

Download on the App Store